Location: The Rolnick Observatory
(41.1711°N, 73.3275°W)
Time: 04:13:45
(UTC-04:00)

Daily predictions for brighter satellites

Satellite Brightness Start Highest point End
(mag) Time Altitude Azimuth Time Altitude Azimuth Time Altitude Azimuth
Cosmos 2219 Rocket 4.4 00:23:49 17° NE 00:23:49 17° NE 00:25:07 10° NE
Cosmos 2333 Rocket 4.4 00:39:46 20° NE 00:39:46 20° NE 00:41:29 10° NE
Cosmos 2237 Rocket 4.4 00:41:33 18° NE 00:41:33 18° NE 00:43:02 10° NE
ATLAS 3B R/B 3.7 01:08:52 45° NE 01:08:52 45° NE 01:13:47 10° NE
Cosmos 2278 Rocket 4.1 01:07:11 10° NNW 01:09:22 24° NNW 01:09:22 24° NNW
CZ-2C R/B 4.5 01:35:27 10° N 01:38:09 27° NNW 01:38:09 27° NNW
CZ-4C R/B 4.0 01:48:42 25° NE 01:48:42 25° NE 01:51:18 10° NE
USA 238 DEB 4.3 02:01:31 55° NE 02:01:31 55° NE 02:06:51 10° NE
USA 238 4.3 02:01:38 54° NE 02:01:38 54° NE 02:06:57 10° NE
Cosmos 2219 Rocket 4.1 02:05:32 22° NNW 02:05:32 22° NNW 02:08:33 10° N
ATLAS CENTAUR R/B 4.3 02:07:43 10° N 02:09:57 16° NNE 02:09:57 16° NNE
SL-16 R/B 3.4 02:19:06 38° N 02:19:06 38° N 02:22:37 10° NNE
COSMOS 2455 4.3 02:19:04 29° NNW 02:19:04 29° NNW 02:23:19 10° NNE
Cosmos 2333 Rocket 4.0 02:21:46 24° NNW 02:21:46 24° NNW 02:25:14 10° N
Cosmos 2237 Rocket 3.9 02:23:22 25° NNW 02:23:22 25° NNW 02:26:45 10° N
NOSS 3-2 (C) 4.3 02:33:31 41° E 02:33:31 41° E 02:38:35 10° NE
BREEZE-M DEB (TANK) 3.9 02:40:47 86° SSE 02:40:50 87° SE 02:45:19 10° NE
ATLAS 5 CENTAUR R/B 4.0 02:51:54 18° E 02:51:54 18° E 02:54:35 10° ENE
ATLAS 3B R/B 4.1 02:56:06 28° WNW 02:57:44 30° NW 03:04:06 10° NNE
Cosmos 1603 4.1 03:00:41 58° N 03:00:41 58° N 03:05:21 10° NNE
Meteor 2-3 Rocket 3.9 03:13:39 10° N 03:19:26 72° E 03:20:01 66° ESE
CZ-2D R/B 2.6 03:18:19 10° NNE 03:23:28 51° E 03:23:57 49° ESE
Okean O Rocket 4.1 03:21:43 10° NE 03:24:29 16° E 03:26:41 12° SE
CZ-3A R/B 4.5 03:21:47 20° WNW 03:24:46 27° NNW 03:28:33 10° NE
Cosmos 724 4.4 03:27:24 62° SE 03:27:50 64° ESE 03:33:47 10° NE
Cosmos 1726 4.2 03:30:25 22° N 03:30:25 22° N 03:31:54 10° N
Cosmos 1943 3.1 03:29:24 82° SE 03:29:31 82° ESE 03:35:12 10° NNE
Spot 4 Rocket 4.1 03:25:14 10° N 03:29:55 70° NNW 03:29:55 70° NNW
IRS-1D 3.6 03:25:15 10° NNE 03:30:29 73° ESE 03:30:40 72° ESE
CZ-4C R/B 3.4 03:33:52 30° NW 03:34:26 30° NW 03:39:48 10° NNE
Cosmos 1331 Rocket 4.1 03:34:13 10° NNW 03:38:46 64° NW 03:38:46 64° NW
ADEOS 3.8 03:34:29 10° N 03:39:13 56° NW 03:39:13 56° NW
ARIANE 5 R/B 2.4 03:34:57 10° NNE 03:40:14 86° WNW 03:40:23 84° SW
Cosmos 2369 Rocket 2.0 03:35:03 10° NNW 03:40:41 85° WSW 03:41:29 67° S
USA 234 3.2 03:39:38 10° NE 03:46:13 85° NW 03:47:57 53° WSW
SeaSat 1 3.6 03:44:25 10° SE 03:49:04 43° ENE 03:53:43 10° NNW
ATLAS CENTAUR R/B 4.0 03:45:50 10° NW 03:46:10 12° NW 03:46:10 12° NW
Cosmos 1455 2.7 03:51:09 58° ENE 03:51:09 58° ENE 03:54:47 10° NNE
SL-16 R/B 2.4 03:52:07 49° SSW 03:53:45 69° WSW 03:59:56 10° NNW
Resurs 1-4 Rocket 2.0 03:52:32 10° N 03:57:49 77° WNW 03:58:41 61° SW
Cosmos 2242 Rocket 3.6 03:59:17 67° WNW 03:59:17 67° WNW 04:03:43 10° N
SL-16 R/B 4.4 04:00:59 11° WNW 04:02:13 12° NW 04:04:10 10° NNW
Cosmos 1943 Rocket 2.6 03:58:05 10° NNW 04:03:45 64° ENE 04:09:20 10° SE
Cosmos 1862 Rocket 3.8 04:03:46 47° SSE 04:04:51 66° E 04:09:14 10° NNE
NOSS 3-2 (A) 4.3 04:04:36 31° WNW 04:06:27 38° NW 04:12:40 10° NNE
Cosmos 1709 Rocket 4.0 04:08:19 10° NNW 04:14:34 60° W 04:17:24 32° SSW
Cosmos 2263 4.2 04:08:55 10° NNW 04:14:38 63° WSW 04:20:20 10° S
Cosmos 2251 Rocket 4.4 04:15:49 31° WNW 04:16:22 32° WNW 04:21:03 10° N
ERS-2 3.9 04:16:01 10° NNW 04:17:59 20° NW 04:17:59 20° NW
Cosmos 1408 4.1 04:16:54 10° N 04:20:26 37° ENE 04:23:56 10° SSE
CENTAUR R/B 2.6 04:19:16 30° SSW 04:22:28 72° ESE 04:29:16 10° NE
NOSS 3-2 (C) 4.4 04:20:58 27° W 04:23:26 37° NW 04:29:38 10° NNE
Cosmos 1825 3.1 04:24:05 10° N 04:27:47 48° E 04:31:27 10° SSE
SL-27 R/B 2.8 04:26:50 41° S 04:27:56 66° ESE 04:31:33 10° NNE
MOZ.5/SAFIR/RUBIN 5/SL-8 3.7 04:23:45 10° SSE 04:28:22 83° ENE 04:33:01 10° N
BREEZE-M DEB (TANK) 2.7 04:28:25 43° N 04:28:39 45° NNE 04:31:00 10° ESE
Cosmos 1733 Rocket 3.1 04:26:35 10° NNW 04:30:52 54° W 04:32:11 38° SSW
IRS-1C Rocket 4.1 04:26:07 10° NNE 04:31:26 84° ESE 04:35:13 20° SSW
Abrixas rocket 4.3 04:31:10 15° NW 04:33:14 25° N 04:36:06 10° ENE
ARGOS Delta rocket 3.5 04:28:58 10° N 04:33:22 73° WNW 04:35:21 32° SSW
Cosmos 1656 Rocket 4.4 04:29:50 10° NNW 04:35:09 54° ENE 04:40:26 10° SE
ATLAS 5 CENTAUR R/B 2.1 04:33:28 35° WSW 04:35:15 55° NW 04:40:25 10° NNE
Cosmos 2074 Rocket 4.0 04:30:33 10° N 04:36:48 90° WSW 04:43:03 10° S
Cosmos 2327 Rocket 4.4 04:32:52 10° N 04:39:00 89° W 04:45:11 10° S
Cosmos 2184 Rocket 4.0 04:34:25 10° N 04:40:50 87° W 04:47:12 10° S
Cosmos 1862 3.3 04:37:17 10° N 04:41:17 81° E 04:45:14 10° S
EO 1 Del DPAF 4.4 04:43:02 26° WNW 04:43:02 26° WNW 04:45:38 10° NW
UNKNOWN OBJECT B 3.7 04:40:50 10° N 04:44:02 28° WNW 04:44:16 28° WNW
PSLV R/B 3.2 04:47:17 36° W 04:48:34 85° S 04:52:00 10° E
Cosmos 1869 4.1 04:50:13 29° WSW 04:51:05 33° WNW 04:54:42 10° NNW
CZ-4B R/B 2.6 04:52:56 10° N 04:56:36 74° WNW 04:59:28 16° SSW
Cosmos 1933 3.4 04:55:34 18° SSW 04:58:27 61° W 05:02:32 10° N
Cosmos 1908 Rocket 3.5 04:55:18 10° NNW 04:59:37 59° W 05:03:53 10° S
BREEZE-M DEB (TANK) 3.4 04:59:15 25° SSW 05:00:31 52° SE 05:05:00 10° ENE
Okean O Rocket 2.0 04:56:48 10° N 05:01:06 47° WNW 05:04:08 18° SW
Cosmos 2221 Rocket 3.5 04:58:27 10° S 05:02:53 83° W 05:07:20 10° N
CZ-2D R/B 3.5 04:59:18 10° NNW 05:03:09 21° WNW 05:05:16 16° W
Okean-O 3.1 05:01:51 10° NNE 05:06:16 62° E 05:10:38 10° S
SL-08 ROCKET BODY 4.5 05:00:42 10° NNW 05:06:35 58° W 05:12:33 10° S
Cosmos 407 Rocket 4.0 05:01:55 10° S 05:07:01 61° ESE 05:12:14 10° NNE
Atlas Centaur 2 3.8 05:07:47 10° SSW 05:10:36 16° SSE 05:13:46 10° ESE
Cosmos 2285 Rocket 4.0 05:05:02 10° NNW 05:11:23 63° WSW 05:17:39 10° S
COSMOS 2406 3.4 05:08:57 13° SW 05:14:00 61° WNW 05:19:43 10° NNE
Sich 1 Rocket 4.4 05:13:08 10° NNW 05:16:59 30° W 05:20:50 10° SSW
Cosmos 1703 Rocket 3.8 05:12:54 10° SSW 05:17:15 51° W 05:21:39 10° N
Cosmos 389 Rocket 4.1 05:17:29 16° W 05:18:35 18° WNW 05:21:06 10° NNW
Cosmos 2369 Rocket 4.0 05:22:54 10° W 05:23:07 10° W 05:23:07 10° W
SeaSat 1 3.4 05:22:40 10° SSW 05:26:41 25° WSW 05:30:44 10° NW
CZ-4B R/B 3.6 05:22:31 10° N 05:27:27 41° WNW 05:32:21 10° SW
Meteor PRIRODA 3.7 05:24:22 10° NNE 05:28:09 85° ESE 05:31:55 10° SSW
USA 234 4.4 05:22:59 10° NE 05:28:42 33° NNW 05:34:23 10° W
Cosmos 2151 Rocket 4.3 05:25:44 10° N 05:30:04 59° E 05:34:24 10° SSE
Geosat 4.0 05:27:45 10° NNE 05:32:46 71° WNW 05:37:45 10° SW
USA 129 2.9 05:35:23 12° WNW 05:35:23 12° WNW 05:35:37 10° NW
Resurs 1-4 Rocket 4.1 05:35:55 10° NW 05:36:44 10° WNW 05:37:33 10° WNW
PSLV R/B 3.8 05:33:23 10° N 05:37:39 52° WNW 05:41:55 10° SSW
USA 116 4.3 05:33:50 10° S 05:38:30 62° W 05:43:41 10° NNW
COSMOS 2487 2.6 05:37:03 10° SSW 05:40:36 60° WNW 05:44:11 10° N
Meteor 2-10 Rocket 3.9 05:39:37 10° S 05:45:27 87° E 05:51:11 10° N
Cosmos 1943 Rocket 3.5 05:43:16 10° WNW 05:46:53 18° W 05:50:29 10° SW
Cosmos 2082 Rocket 4.1 05:42:25 10° SSE 05:47:25 32° ESE 05:52:27 10° NE
Meteor 2-13 Rocket 4.4 05:43:18 10° NNW 05:49:20 72° W 05:55:20 10° S
MOS 1 Rocket 3.3 05:46:40 10° NNE 05:50:59 77° ESE 05:55:15 10° S
ADEOS II 2.3 05:46:53 10° N 05:52:01 53° WNW 05:57:06 10° SSW
